Narsarsuaq, Greenland

12:25 AM WGST on July 24, 2016 (GMT -0200)
Narsarsuaq

Weather History for BGBW - September, 2013

Change the Weather History Date:

Wednesday, September 11, 2013

  Actual Average Record
Temperature  
Mean Temperature 41 °F -  
Max Temperature 45 °F 46 °F 66 °F (1996)
Min Temperature 37 °F 33 °F 32 °F (2004)
Degree Days  
Heating Degree Days 24    
Moisture  
Dew Point 34 °F    
Average Humidity 74    
Maximum Humidity 87    
Minimum Humidity 46    
Precipitation  
Precipitation 0.00 in 0.08 in - ()
Sea Level Pressure  
Sea Level Pressure 29.73 in    
Wind  
Wind Speed 10 mph ()    
Max Wind Speed 18 mph    
Max Gust Speed -    
Visibility 6.8 miles    
Events Rain    
Averages and records for this station are not official NWS values.
T = Trace of Precipitation, MM = Missing Value Source: Averaged Metar Reports

Daily Weather History Graph

Daily Weather History Graph

Search for Another Location

Airport or City:

Trip Planner

Search our weather history database for the weather conditions in past years. The results will help you decide how hot, cold, wet, or windy it might be!

Date:

Astronomy

Sep. 11, 2013 Rise Set
Actual Time 6:18 AM WGST 7:36 PM WGST
Civil Twilight 5:34 AM WGST 8:20 PM WGST
Nautical Twilight 4:38 AM WGST 9:15 PM WGST
Astronomical Twilight 3:31 AM WGST 10:21 PM WGST
Moon 2:31 PM WGST (9/11) 9:32 PM WGST (9/11)
Length of Visible Light 14h 46m
Length of Day
13h 17m
Waxing Crescent, 37% of the Moon is Illuminated
Sep 11
Waxing Crescent
Sep 12
First Quarter
Sep 19
Full
Sep 27
Last Quarter
Oct 4
New

Hourly Weather History & Observations

Time (WGST) Temp. Windchill Dew Point Humidity Pressure Visibility Wind Dir Wind Speed Gust Speed Precip Events Conditions
12:50 AM 39.2 °F 31.2 °F 35.6 °F 87% 29.59 in 5.0 mi SSW 13.8 mph - N/A Rain Rain
1:50 AM 39.2 °F 31.2 °F 35.6 °F 87% 29.62 in 6.2 mi SSW 13.8 mph - N/A Rain Rain
4:00 AM 40 °F - 34 °F 72% 29.64 in 14 mi SW 13.8 mph - - Rain Light Rain Showers
5:50 AM 37.4 °F 30.3 °F 33.8 °F 87% 29.65 in 6.2 mi West 10.4 mph - N/A Rain Light Rain
6:50 AM 39.2 °F 32.5 °F 35.6 °F 87% 29.65 in 6.2 mi SW 10.4 mph - N/A Rain Light Rain
7:00 AM 38 °F - 35 °F 83% 29.68 in 10 mi SW 9.2 mph - - Rain Light Drizzle
7:50 AM 39.2 °F 33.0 °F 35.6 °F 87% 29.68 in 6.2 mi WSW 9.2 mph - N/A Rain Light Rain
8:50 AM 39.2 °F 32.5 °F 35.6 °F 87% 29.68 in 6.2 mi WSW 10.4 mph - N/A   Mostly Cloudy
9:50 AM 39.2 °F 31.6 °F 35.6 °F 87% 29.71 in 6.2 mi WSW 12.7 mph - N/A   Mostly Cloudy
10:00 AM 39 °F - 35 °F 80% 29.72 in 25 mi WSW 11.5 mph - -   Clear
10:50 AM 41.0 °F 34.7 °F 35.6 °F 81% 29.71 in 6.2 mi WSW 10.4 mph - N/A   Mostly Cloudy
11:50 AM 41.0 °F 35.8 °F 35.6 °F 81% 29.71 in 6.2 mi SW 8.1 mph - N/A   Mostly Cloudy
12:50 PM 41.0 °F 34.3 °F 35.6 °F 81% 29.74 in 6.2 mi SW 11.5 mph - N/A Rain Light Rain
1:00 PM 41 °F - 35 °F 72% 29.74 in 9 mi SW 12.7 mph - - Rain Light Drizzle
2:50 PM 42.8 °F 36.2 °F 35.6 °F 76% 29.74 in 6.2 mi SW 12.7 mph - N/A   Mostly Cloudy
3:50 PM 44.6 °F 38.4 °F 35.6 °F 71% 29.74 in 6.2 mi SSW 12.7 mph - N/A   Mostly Cloudy
4:00 PM 45 °F - 35 °F 56% 29.75 in 22 mi SW 13.8 mph - -   Scattered Clouds
6:50 PM 42.8 °F 35.4 °F 33.8 °F 70% 29.77 in 6.2 mi WSW 15.0 mph - N/A   Mostly Cloudy
7:00 PM 42 °F - 32 °F 57% 29.79 in 28 mi WSW 15.0 mph - -   Mostly Cloudy
7:50 PM 42.8 °F 34.5 °F 28.4 °F 57% 29.77 in 6.2 mi WSW 18.4 mph - N/A   Scattered Clouds
8:50 PM 42.8 °F 36.6 °F 30.2 °F 61% 29.80 in 6.2 mi SSW 11.5 mph - N/A   Mostly Cloudy
9:50 PM 41.0 °F 35.2 °F 28.4 °F 61% 29.83 in 6.2 mi WSW 9.2 mph - N/A   Scattered Clouds
10:00 PM 41 °F - 27 °F 46% 29.83 in 31 mi WSW 6.9 mph - -  
10:50 PM 41.0 °F 38.0 °F 30.2 °F 65% 29.83 in 6.2 mi Variable 4.6 mph - N/A   Scattered Clouds
11:50 PM 37.4 °F - 30.2 °F 75% 29.86 in 6.2 mi WNW 2.3 mph - N/A   Scattered Clouds